This is the latest recevied weather packets stored in our database for station/object BM6HML-1. If no packets are shown the sender has not sent any weather packets the latest 10 day(s).
| Time | Temp. | Humidity | Pressure | Rain* | Wind** | Luminosity | Snow |
|---|---|---|---|---|---|---|---|
| 1777853660 | 32.22° C | 74% | 1011.7 hPa | - | - | - | - |
| 1777852460 | 32.22° C | 73% | 1011.4 hPa | - | - | - | - |
| 1777851260 | 32.22° C | 76% | 1011.3 hPa | - | - | - | - |
| 1777850059 | 32.22° C | 76% | 1011.4 hPa | - | - | - | - |
| 1777848860 | 32.22° C | 75% | 1011.4 hPa | - | - | - | - |
| 1777847660 | 32.22° C | 75% | 1011.1 hPa | - | - | - | - |
| 1777846460 | 32.22° C | 75% | 1011.1 hPa | - | - | - | - |
| 1777845260 | 32.22° C | 75% | 1011.1 hPa | - | - | - | - |
| 1777844060 | 32.22° C | 75% | 1011 hPa | - | - | - | - |
| 1777842860 | 32.22° C | 76% | 1011.1 hPa | - | - | - | - |
| 1777841659 | 32.22° C | 75% | 1011 hPa | - | - | - | - |
| 1777840460 | 32.22° C | 76% | 1011 hPa | - | - | - | - |
| 1777839259 | 32.22° C | 76% | 1010.9 hPa | - | - | - | - |
| 1777838060 | 32.22° C | 76% | 1010.9 hPa | - | - | - | - |
| 1777836860 | 32.22° C | 77% | 1010.5 hPa | - | - | - | - |
| 1777835660 | 32.22° C | 76% | 1010.5 hPa | - | - | - | - |
| 1777834460 | 32.22° C | 76% | 1010.7 hPa | - | - | - | - |
| 1777833260 | 32.22° C | 77% | 1010.6 hPa | - | - | - | - |
| 1777832060 | 32.22° C | 77% | 1010.5 hPa | - | - | - | - |
| 1777830860 | 32.22° C | 78% | 1010.7 hPa | - | - | - | - |
| 1777829659 | 32.22° C | 78% | 1010.7 hPa | - | - | - | - |
| 1777828460 | 32.22° C | 78% | 1010.9 hPa | - | - | - | - |
| 1777827260 | 32.22° C | 74% | 1010.9 hPa | - | - | - | - |
| 1777826060 | 32.78° C | 80% | 1010.8 hPa | - | - | - | - |
| 1777824860 | 32.78° C | 79% | 1010.8 hPa | - | - | - | - |
* Rain since midnight (hover to see other rain measurements)
** Current wind speed in m/s (hover to see current wind gust speed)